Location: Asbacherhof
(48.8543°N, 10.7903°E)
Time: 23:12:51
(UTC+00:00)

ADEOS II - Pass Details

Date: 26 May 2022
Orbit: 799 x 800 km, 98.6° (Epoch: 29 June)

Event Time Altitude Azimuth Distance (km) Brightness Sun altitude
Rises 01:36:39 0° 14° (NNE) 3,319 6.7 -13.1°
Reaches altitude 10° 01:38:59 10° 14° (NNE) 2,385 5.8 -12.9°
Maximum altitude 01:44:17 88° 284° (WNW) 807 2.1 -12.4°
Enters shadow 01:48:44 15° 197° (SSW) 2,059 3.6 -12.0°
